FW5890 Weather Reports


Display with metric or nautical units.
time (UTC)temp
F
wind
direction
speed
MPH
gust
MPH
rain 1hr
in
rain 24hr
in
rain mn
in
humidity
%
barometer
mb
20260903154547 75 151 1.0 5.0 0.00 0.01 0.00 89 1008.5
20260903154102 74 150 0.0 5.0 0.00 0.01 0.00 89 1008.6
20260903153537 74 157 1.0 5.0 0.00 0.01 0.00 89 1008.5
20260903153011 74 153 1.0 5.0 0.00 0.01 0.00 88 1008.4
20260903152531 74 157 0.0 5.0 0.00 0.01 0.00 88 1008.6
20260903152054 74 138 1.0 4.0 0.00 0.01 0.00 87 1008.6
20260903151501 74 160 0.0 5.0 0.00 0.01 0.00 87 1008.7
20260903151036 75 164 1.0 5.0 0.00 0.01 0.00 85 1008.7
20260903150605 75 165 2.0 5.0 0.00 0.01 0.00 84 1008.7
20260903150057 75 186 2.0 4.0 0.00 0.01 0.00 82 1008.7
20260903145520 76 184 1.0 5.0 0.00 0.01 0.00 81 1008.5
20260903145055 76 148 1.0 4.0 0.00 0.01 0.00 80 1008.6
20260903144529 77 191 1.0 7.0 0.00 0.01 0.00 80 1008.6
20260903144051 77 159 2.0 5.0 0.00 0.01 0.00 80 1008.5
20260903143610 77 171 3.0 6.0 0.00 0.01 0.00 80 1008.4
20260903143054 77 188 1.0 4.0 0.00 0.01 0.00 81 1008.4
20260903142509 76 205 1.0 5.0 0.00 0.01 0.00 82 1008.4
20260903142037 76 165 1.0 5.0 0.00 0.01 0.00 81 1008.4
20260903141556 76 167 1.0 3.0 0.00 0.01 0.00 80 1008.5
20260903141018 77 173 0.0 3.0 0.00 0.01 0.00 81 1008.5
20260903140557 77 176 0.0 3.0 0.00 0.01 0.00 81 1008.5
20260903140013 76 186 0.0 3.0 0.00 0.01 0.00 81 1008.6
20260903135526 76 180 1.0 4.0 0.00 0.01 0.00 80 1008.5
20260903135047 76 190 1.0 4.0 0.00 0.01 0.00 82 1008.5
20260903134607 76 165 1.0 3.0 0.00 0.01 0.00 82 1008.5
20260903134027 75 171 0.0 4.0 0.00 0.01 0.00 84 1008.6
20260903133602 75 169 0.0 4.0 0.00 0.01 0.00 84 1008.7
20260903133011 74 153 0.0 5.0 0.00 0.01 0.00 85 1008.6
20260903132531 74 153 2.0 5.0 0.00 0.01 0.00 86 1008.6
20260903132050 73 173 1.0 3.0 0.00 0.01 0.00 86 1008.6
20260903131501 73 178 1.0 3.0 0.00 0.01 0.00 87 1008.7
20260903131044 73 182 0.0 3.0 0.00 0.01 0.00 87 1008.7
20260903130523 72 182 0.0 3.0 0.00 0.01 0.00 87 1008.6
20260903130059 72 186 0.0 2.0 0.00 0.01 0.00 88 1008.4
20260903125509 72 185 0.0 3.0 0.00 0.01 0.00 88 1008.4
20260903125056 72 180 0.0 3.0 0.00 0.01 0.00 88 1008.4
20260903124532 73 178 0.0 3.0 0.00 0.01 0.00 88 1008.3
20260903124048 73 167 0.0 4.0 0.00 0.01 0.00 88 1008.4
20260903123607 73 227 1.0 5.0 0.00 0.01 0.00 88 1008.4
20260903123016 73 171 1.0 5.0 0.00 0.01 0.00 88 1008.2
20260903122601 73 217 2.0 5.0 0.00 0.01 0.00 88 1007.8
20260903122011 73 167 1.0 4.0 0.00 0.01 0.00 89 1007.7
20260903121552 73 175 0.0 4.0 0.00 0.01 0.00 88 1007.9
20260903121000 73 171 0.0 4.0 0.00 0.01 0.00 88 1007.9
20260903120521 73 143 0.0 4.0 0.00 0.01 0.00 88 1008.0
20260903120048 73 137 0.0 4.0 0.00 0.01 0.00 88 1008.2
20260903115514 73 181 0.0 4.0 0.00 0.01 0.00 88 1008.2
20260903115057 73 185 1.0 8.0 0.00 0.01 0.00 89 1008.2
20260903114505 73 320 2.0 8.0 0.00 0.01 0.00 89 1008.5
20260903114029 74 188 1.0 8.0 0.00 0.01 0.00 90 1008.6
20260903113545 74 296 4.0 8.0 0.00 0.01 0.00 90 1008.9
20260903113105 74 338 2.0 8.0 0.00 0.01 0.00 91 1008.9
20260903112517 73 278 1.0 7.0 0.00 0.01 0.00 91 1008.9
20260903112036 73 258 3.0 7.0 0.00 0.01 0.00 92 1008.9
20260903111605 73 259 0.0 3.0 0.00 0.01 0.00 92 1008.8
20260903111033 73 273 0.0 4.0 0.00 0.01 0.00 92 1008.8
20260903110010 73 257 0.0 3.0 0.00 0.01 0.00 92 1008.6
20260903105546 73 257 0.0 3.0 0.00 0.01 0.00 93 1008.6
20260903105107 73 267 0.0 3.0 0.00 0.01 0.00 93 1008.7
20260903104556 73 268 0.0 3.0 0.00 0.01 0.00 93 1008.8
20260903104020 72 319 1.0 5.0 0.00 0.01 0.00 94 1008.8
20260903103541 72 178 1.0 6.0 0.00 0.01 0.00 94 1008.8
20260903102525 72 256 1.0 4.0 0.00 0.01 0.00 95 1009.1
20260903102059 72 256 0.0 3.0 0.00 0.01 0.00 95 1008.9
20260903101525 71 171 0.0 2.0 0.00 0.01 0.00 95 1008.6
20260903101049 71 171 0.0 3.0 0.00 0.01 0.00 95 1008.6
20260903100529 71 205 0.0 3.0 0.00 0.01 0.00 95 1008.4
20260903100050 71 224 0.0 3.0 0.00 0.01 0.00 95 1008.5
20260903095508 71 292 0.0 2.0 0.00 0.01 0.00 96 1008.8
20260903095049 71 296 0.0 2.0 0.00 0.01 0.00 96 1008.8
20260903094503 71 315 0.0 3.0 0.00 0.01 0.00 96 1008.9
20260903094044 71 325 0.0 3.0 0.00 0.01 0.00 96 1008.8
20260903093508 71 175 0.0 3.0 0.00 0.01 0.00 96 1008.7
20260903093045 71 175 0.0 3.0 0.00 0.01 0.00 96 1008.6
20260903092559 71 185 0.0 3.0 0.00 0.01 0.00 96 1008.6
20260903092035 71 182 0.0 2.0 0.00 0.01 0.00 96 1008.7
20260903091554 70 183 0.0 0.0 0.00 0.01 0.00 96 1008.6
20260903091011 70 183 0.0 0.0 0.00 0.01 0.00 96 1008.5
20260903090536 70 183 0.0 0.0 0.00 0.01 0.00 96 1008.4
20260903090019 70 183 0.0 0.0 0.00 0.01 0.00 96 1008.4
20260903085533 70 183 0.0 0.0 0.00 0.02 0.00 96 1008.4
20260903085057 70 183 0.0 0.0 0.00 0.02 0.00 96 1008.4
20260903084544 70 183 0.0 0.0 0.00 0.02 0.00 96 1008.3
20260903084030 70 183 0.0 0.0 0.00 0.02 0.00 96 1008.4
20260903083556 70 183 0.0 0.0 0.00 0.02 0.00 96 1008.4
20260903083055 70 183 0.0 0.0 0.00 0.02 0.00 95 1008.4
20260903082515 71 183 0.0 0.0 0.00 0.02 0.00 95 1008.4
20260903082004 71 183 0.0 0.0 0.00 0.02 0.00 95 1008.5
20260903081558 71 183 0.0 0.0 0.00 0.02 0.00 96 1008.5
20260903081033 71 183 0.0 0.0 0.00 0.02 0.00 96 1008.5
20260903080508 71 183 0.0 0.0 0.00 0.02 0.00 95 1008.5
20260903080046 71 183 0.0 0.0 0.00 0.02 0.00 95 1008.5
20260903075505 71 183 0.0 0.0 0.00 0.05 0.00 95 1008.7
20260903075027 71 183 0.0 0.0 0.00 0.05 0.00 95 1008.5
20260903074554 71 183 0.0 0.0 0.00 0.05 0.00 95 1008.6
20260903074033 71 183 0.0 0.0 0.00 0.05 0.00 95 1008.7
20260903073522 71 183 0.0 0.0 0.00 0.05 0.00 94 1008.6
20260903073047 71 183 0.0 0.0 0.00 0.05 0.00 95 1008.7
20260903072541 71 183 0.0 0.0 0.00 0.05 0.00 95 1008.8
20260903072104 71 183 0.0 0.0 0.00 0.05 0.00 95 1008.9
20260903071520 71 183 0.0 0.0 0.00 0.05 0.00 95 1009.0
20260903071057 71 183 0.0 0.0 0.00 0.05 0.00 95 1008.9
20260903070520 71 183 0.0 0.0 0.00 0.05 0.00 95 1008.9
20260903065505 72 183 0.0 0.0 0.00 0.07 0.00 95 1008.8
20260903065100 72 183 0.0 1.0 0.00 0.07 0.00 95 1008.9
20260903064520 71 183 0.0 1.0 0.00 0.07 0.00 95 1009.0
20260903064039 71 183 0.0 0.0 0.00 0.07 0.00 95 1009.1
20260903063518 71 183 0.0 0.0 0.00 0.07 0.00 94 1009.1
20260903063103 71 183 0.0 0.0 0.00 0.07 0.00 94 1009.1
20260903062521 71 183 0.0 0.0 0.00 0.07 0.00 94 1009.1
20260903062002 72 183 0.0 0.0 0.00 0.07 0.00 94 1009.1
20260903061546 72 183 0.0 0.0 0.00 0.07 0.00 94 1009.1
20260903061106 72 183 0.0 0.0 0.00 0.07 0.00 94 1009.1
20260903060516 72 183 0.0 0.0 0.00 0.07 0.00 94 1009.2
20260903060039 72 183 0.0 0.0 0.00 0.07 0.00 94 1009.1
20260903055513 72 183 0.0 0.0 0.00 0.08 0.00 94 1009.1
20260903055029 72 183 0.0 0.0 0.00 0.08 0.00 94 1009.2
20260903054508 72 183 0.0 0.0 0.00 0.08 0.00 94 1009.2
20260903054048 72 183 0.0 0.0 0.00 0.08 0.00 94 1009.2
20260903053610 72 183 0.0 0.0 0.00 0.08 0.00 94 1009.2
20260903053021 72 183 0.0 0.0 0.00 0.08 0.00 94 1009.2
20260903052538 72 183 0.0 0.0 0.00 0.08 0.00 95 1009.1
20260903052101 72 183 0.0 0.0 0.00 0.08 0.00 94 1009.1
20260903051508 72 183 0.0 0.0 0.00 0.08 0.00 94 1009.1
20260903051027 72 183 0.0 0.0 0.00 0.08 0.00 94 1009.2
20260903050502 72 183 0.0 0.0 0.00 0.08 0.00 94 1009.2
20260903050047 72 183 0.0 0.0 0.00 0.08 0.00 94 1009.2
20260903045520 72 183 0.0 0.0 0.00 0.08 0.08 94 1009.2
20260903045043 72 183 0.0 0.0 0.00 0.08 0.08 94 1009.3
20260903044600 72 183 0.0 0.0 0.00 0.08 0.08 94 1009.4
20260903044039 72 183 0.0 0.0 0.00 0.08 0.08 94 1009.3
20260903043507 72 183 0.0 0.0 0.00 0.08 0.08 94 1009.3
20260903043028 72 183 0.0 0.0 0.00 0.08 0.08 94 1009.4
20260903042550 72 183 0.0 0.0 0.00 0.08 0.08 94 1009.4
20260903042042 72 183 0.0 0.0 0.00 0.08 0.08 94 1009.3
20260903041600 72 183 0.0 0.0 0.00 0.08 0.08 93 1009.5
20260903041009 72 183 0.0 0.0 0.00 0.08 0.08 93 1009.5
20260903040554 72 183 0.0 0.0 0.00 0.08 0.08 93 1009.6
20260903040013 73 183 0.0 0.0 0.00 0.08 0.08 93 1009.5
20260903035605 73 183 0.0 0.0 0.00 0.08 0.08 93 1009.4
20260903035013 73 183 0.0 0.0 0.00 0.08 0.08 92 1009.6
20260903034558 73 183 0.0 0.0 0.00 0.08 0.08 92 1009.6
20260903034008 73 183 0.0 0.0 0.00 0.08 0.08 92 1009.6
20260903033527 73 183 0.0 0.0 0.00 0.08 0.08 92 1009.6
20260903033107 73 183 0.0 0.0 0.00 0.08 0.08 92 1009.6
20260903032523 73 183 0.0 0.0 0.00 0.08 0.08 91 1009.6
20260903032058 73 183 0.0 0.0 0.00 0.08 0.08 91 1009.6
20260903031519 73 183 0.0 0.0 0.00 0.08 0.08 91 1009.6
20260903031044 74 183 0.0 0.0 0.00 0.08 0.08 91 1009.7
20260903030520 74 183 0.0 0.0 0.00 0.08 0.08 91 1009.6
20260903030109 74 183 0.0 0.0 0.00 0.08 0.08 91 1009.6
20260903025534 74 183 0.0 0.0 0.00 0.08 0.08 91 1009.5
20260903025002 74 183 0.0 0.0 0.00 0.08 0.08 90 1009.5
20260903024522 75 183 0.0 0.0 0.00 0.08 0.08 90 1009.6
20260903024011 75 183 0.0 0.0 0.00 0.08 0.08 90 1009.6
20260903023542 75 183 0.0 0.0 0.00 0.08 0.08 90 1009.5
20260903023058 75 183 0.0 0.0 0.00 0.08 0.08 90 1009.5
20260903022513 76 183 0.0 0.0 0.00 0.08 0.08 90 1009.5
20260903022054 76 183 0.0 0.0 0.00 0.08 0.08 90 1009.4
20260903021504 76 183 0.0 0.0 0.00 0.08 0.08 89 1009.5
20260903021022 76 183 0.0 0.0 0.00 0.08 0.08 88 1009.5
20260903020607 76 183 0.0 0.0 0.00 0.08 0.08 88 1009.4
20260903020045 76 183 0.0 0.0 0.00 0.08 0.08 88 1009.4
20260903015505 77 183 0.0 0.0 0.00 0.08 0.08 89 1009.4
20260903015033 77 183 0.0 0.0 0.00 0.08 0.08 89 1009.4
20260903014553 77 183 0.0 0.0 0.00 0.08 0.08 87 1009.4
20260903014004 77 183 0.0 0.0 0.00 0.08 0.08 87 1009.3
20260903013530 78 183 0.0 0.0 0.00 0.08 0.08 86 1009.3
20260903013019 78 183 0.0 0.0 0.00 0.08 0.08 86 1009.2
20260903012543 78 183 0.0 0.0 0.00 0.08 0.08 86 1009.2
20260903012012 78 183 0.0 0.0 0.00 0.08 0.08 85 1009.1
20260903011534 79 183 0.0 0.0 0.00 0.08 0.08 83 1009.1
20260903011010 79 183 0.0 0.0 0.00 0.08 0.08 81 1009.1
20260903010539 80 183 0.0 0.0 0.00 0.08 0.08 80 1008.9
20260903010100 80 183 0.0 0.0 0.00 0.08 0.08 81 1008.8
20260903005510 80 183 0.0 0.0 0.00 0.08 0.08 79 1008.8
20260903005032 81 183 0.0 0.0 0.00 0.08 0.08 77 1008.8
20260903004550 82 183 0.0 0.0 0.00 0.08 0.08 79 1008.8
20260903004112 82 183 0.0 0.0 0.00 0.08 0.08 73 1008.8
20260903003520 83 183 0.0 0.0 0.00 0.08 0.08 74 1008.9
20260903003055 83 183 0.0 0.0 0.00 0.08 0.08 70 1009.0
20260903002523 84 183 0.0 0.0 0.00 0.08 0.08 73 1008.9
20260903002058 84 183 0.0 0.0 0.00 0.08 0.08 68 1008.9
20260903001509 85 183 0.0 1.0 0.00 0.08 0.08 68 1008.9
20260903001029 85 183 0.0 1.0 0.00 0.08 0.08 66 1008.9
20260903000549 85 183 0.0 2.0 0.00 0.08 0.08 66 1008.9
20260903000111 85 183 0.0 2.0 0.00 0.08 0.08 64 1008.9
20260902235522 86 183 0.0 2.0 0.00 0.08 0.08 64 1008.9
20260902235039 86 183 0.0 3.0 0.00 0.08 0.08 64 1008.9
20260902234602 86 180 0.0 3.0 0.00 0.08 0.08 63 1009.0
20260902234024 87 179 0.0 3.0 0.00 0.08 0.08 63 1009.0
20260902233548 87 179 0.0 3.0 0.00 0.08 0.08 63 1009.0
20260902233017 88 203 0.0 2.0 0.00 0.08 0.08 62 1009.0
20260902232543 88 203 0.0 2.0 0.00 0.08 0.08 62 1009.0
20260902232010 88 202 0.0 3.0 0.00 0.08 0.08 61 1009.0
20260902231551 88 202 1.0 3.0 0.00 0.08 0.08 60 1009.0
20260902231017 89 212 0.0 1.0 0.00 0.08 0.08 60 1009.1
20260902230550 89 233 0.0 2.0 0.00 0.08 0.08 59 1009.0
20260902230014 89 233 0.0 3.0 0.00 0.08 0.08 60 1009.1
20260902225602 89 233 0.0 3.0 0.00 0.08 0.08 60 1009.1
20260902225037 89 232 0.0 3.0 0.00 0.08 0.08 63 1009.1
20260902224604 88 223 0.0 3.0 0.00 0.08 0.08 60 1009.1
20260902224037 88 221 0.0 4.0 0.00 0.08 0.08 63 1009.0
20260902223505 88 309 1.0 4.0 0.00 0.08 0.08 62 1009.1
20260902223035 88 188 0.0 4.0 0.00 0.08 0.08 62 1009.1
20260902222601 88 199 0.0 2.0 0.00 0.08 0.08 62 1009.2
20260902222025 88 290 0.0 3.0 0.00 0.08 0.08 61 1009.1
20260902221612 88 308 1.0 3.0 0.00 0.08 0.08 65 1009.1
20260902221032 88 332 0.0 4.0 0.00 0.08 0.08 61 1009.1
20260902220551 87 169 0.0 6.0 0.00 0.08 0.08 63 1009.1
20260902220028 88 161 2.0 6.0 0.00 0.08 0.08 62 1009.1
20260902215555 88 169 1.0 5.0 0.00 0.08 0.08 61 1009.2
20260902215038 88 204 1.0 3.0 0.00 0.08 0.08 63 1009.3
20260902214523 88 309 0.0 4.0 0.00 0.08 0.08 63 1009.3
20260902214050 88 188 1.0 4.0 0.00 0.08 0.08 61 1009.3
20260902213507 88 182 1.0 4.0 0.00 0.08 0.08 60 1009.3
20260902213036 88 288 2.0 4.0 0.00 0.08 0.08 60 1009.3
20260902212513 88 173 1.0 4.0 0.00 0.08 0.08 60 1009.4
20260902212101 88 178 1.0 4.0 0.00 0.08 0.08 61 1009.4
20260902211553 88 161 0.0 3.0 0.00 0.08 0.08 64 1009.4
20260902211106 87 158 1.0 3.0 0.00 0.08 0.08 62 1009.5
20260902210529 87 153 0.0 6.0 0.00 0.08 0.08 62 1009.5
20260902210009 88 148 2.0 6.0 0.00 0.08 0.08 59 1009.6
20260902205551 88 197 1.0 4.0 0.00 0.08 0.08 60 1009.6
20260902205041 87 169 1.0 3.0 0.00 0.08 0.08 62 1009.5
20260902204523 87 153 0.0 5.0 0.00 0.08 0.08 62 1009.4
20260902204101 88 155 2.0 5.0 0.00 0.08 0.08 62 1009.6
20260902203519 87 202 1.0 4.0 0.00 0.08 0.08 62 1009.5
20260902203108 87 163 1.0 7.0 0.00 0.08 0.08 61 1009.5
20260902202524 88 150 3.0 7.0 0.00 0.08 0.08 59 1009.5
20260902202104 88 139 0.0 3.0 0.00 0.08 0.08 62 1009.6
20260902201542 88 137 1.0 5.0 0.00 0.08 0.08 59 1009.7
20260902201029 88 198 0.0 4.0 0.00 0.08 0.08 61 1009.8
20260902200511 88 196 1.0 3.0 0.00 0.08 0.08 62 1009.9
20260902200051 88 205 1.0 4.0 0.00 0.08 0.08 62 1009.9
20260902195548 87 205 1.0 4.0 0.00 0.08 0.08 61 1010.1
20260902195024 87 327 1.0 6.0 0.00 0.08 0.08 64 1010.1
20260902194502 87 310 1.0 6.0 0.00 0.08 0.08 60 1010.2
20260902194056 86 165 0.0 5.0 0.00 0.08 0.08 63 1010.3
20260902193537 86 165 1.0 8.0 0.00 0.08 0.08 62 1010.3
20260902193059 86 225 3.0 8.0 0.00 0.08 0.08 62 1010.4
20260902192528 86 162 0.0 4.0 0.00 0.08 0.08 67 1010.4
20260902192004 85 184 0.0 4.0 0.00 0.08 0.08 67 1010.4
20260902191539 85 183 0.0 4.0 0.00 0.08 0.08 68 1010.4
20260902191020 85 179 1.0 4.0 0.00 0.08 0.08 68 1010.4
20260902190554 84 308 2.0 5.0 0.00 0.08 0.08 64 1010.4
20260902190009 85 317 1.0 5.0 0.00 0.08 0.08 65 1010.4
20260902185544 85 289 1.0 5.0 0.00 0.08 0.08 66 1010.4
20260902185003 85 214 2.0 5.0 0.00 0.08 0.08 64 1010.4
20260902184523 85 169 1.0 4.0 0.00 0.08 0.08 67 1010.6
20260902184108 85 107 1.0 4.0 0.00 0.08 0.08 65 1010.6
20260902183517 85 171 1.0 4.0 0.00 0.08 0.08 67 1010.7
20260902183129 84 257 0.0 4.0 0.00 0.08 0.08 65 1010.6
20260902182534 84 164 1.0 5.0 0.00 0.08 0.08 69 1010.6
20260902182016 83 98 1.0 5.0 0.00 0.08 0.08 68 1010.6
20260902181502 83 122 1.0 4.0 0.00 0.08 0.08 67 1010.7
20260902181046 83 183 1.0 4.0 0.00 0.08 0.08 70 1010.7
20260902180607 83 178 0.0 4.0 0.00 0.08 0.08 69 1010.9
20260902180017 83 150 1.0 5.0 0.00 0.08 0.08 70 1011.0
20260902175543 83 147 1.0 5.0 0.00 0.08 0.08 71 1011.0
20260902175013 82 165 1.0 5.0 0.00 0.08 0.08 72 1011.0
20260902174533 82 92 0.0 4.0 0.00 0.08 0.08 77 1011.0
20260902174008 81 148 1.0 5.0 0.00 0.08 0.08 72 1011.2
20260902173529 81 165 1.0 4.0 0.00 0.08 0.08 73 1011.3
20260902173006 80 146 0.0 5.0 0.00 0.08 0.08 72 1011.4
20260902172534 80 174 2.0 4.0 0.00 0.08 0.08 74 1011.4
20260902172009 80 213 0.0 5.0 0.00 0.08 0.08 75 1011.8
20260902171558 80 279 2.0 5.0 0.00 0.08 0.08 73 1011.8
20260902171020 79 158 1.0 5.0 0.00 0.08 0.08 75 1011.9
20260902170555 79 164 0.0 3.0 0.00 0.08 0.08 77 1012.0
20260902170013 78 148 1.0 7.0 0.00 0.08 0.08 77 1012.1
20260902165558 78 150 2.0 7.0 0.00 0.08 0.08 74 1012.1
20260902165007 79 157 2.0 5.0 0.01 0.08 0.08 75 1012.1
20260902164527 78 177 1.0 4.0 0.01 0.08 0.08 76 1012.0
20260902164046 78 137 1.0 4.0 0.01 0.08 0.08 78 1011.8
20260902163609 77 116 0.0 4.0 0.01 0.08 0.08 79 1011.7
20260902163017 76 170 0.0 5.0 0.01 0.08 0.08 79 1011.8
20260902162536 76 161 0.0 5.0 0.01 0.08 0.08 80 1011.8
20260902162058 76 160 2.0 6.0 0.01 0.08 0.08 79 1011.8
20260902161514 76 155 3.0 5.0 0.01 0.08 0.08 78 1011.7
20260902161049 76 146 0.0 5.0 0.01 0.08 0.08 78 1011.8
20260902160516 76 165 3.0 7.0 0.01 0.08 0.08 76 1011.6
20260902160109 77 155 3.0 7.0 0.01 0.08 0.08 75 1011.6
20260902155541 77 183 2.0 4.0 0.01 0.08 0.08 77 1011.6
20260902155013 76 156 0.0 6.0 0.00 0.07 0.07 79 1011.5